Flight Information

DEPARTURE
TUCSON, AZ
Elevation:
2643
Runways:
11L/29R - 10996x150 - ASPH-G
3/21 - 7000x150 - ASPH-G
11R/29L - 8408x75 - ASPH-G
Active PE Departure:
11L - 11R
Current PE ATIS:
Q
Altimeter:
30.02
Remarks:
USE CAUTION TAXIWAY ALPHA PARALLEL TO RUNWAY 1 1 LEFT. V F R DEPARTURES CONTACT CLEARANCE DELIVERY, ADVISE ON COURSE HEADING, ALTITUDE, AND IF FLIGHT FOLLOWING IS REQUESTED.
ATIS:
123.8 520-741-1177
Clearance Delivery:
126.65
Ground:
124.4
Tower:
TUCSON TOWER 118.3
DESTINATION
,
Elevation:
TPA:
1000 (est.)


6457 NM79° True-12° Var66° HDG

Flight Plan:
(click to file on line)

1. Type
2. Aircraft Identification
3. Aircraft Type / Special Equipment
4. True Airspeed
kts
5. Departure Airport
(ICAO code)
6. Arriving Airport
(ICAO code)
7. Cruising Altitude
ft
8. Alternate Airport
(ICAO code)
9. Route of Flight
10. Remarks


00:00:00 Departure ATIS: Destination ATIS:

Clearance Limit:
Route:
Altitude: Expect in minutes
Frequency:
Transponder: (7500 Hijack / 7600 Lost Comms / 7700 Emergency)


KTUS 010353Z 27003KT 10SM CLR 28/M02 A3002 RMK AO2 SLP119 T02831022
Time: 2020-10-01T03:53:00Z
1601527041
Winds: 270 @ 3 kts
Visibility: 10.0 sm
Clouds (AGL): CLR
Temperature: 28.3 C
Dew Point: -2.2 C
Pressure: 30.02067 in Hgbr


Notes:

Data extracted from FAA Digital Chart Supplement. Effective: 0901Z Thursday, Sep 10, 2020 to 0901Z Thursday, Nov 5, 2020
Current ATIS data is provided courtisy of PilotEdge.